Date,TemperatureHighF,TemperatureAvgF,TemperatureLowF,DewpointHighF,DewpointAvgF,DewpointLowF,HumidityHigh,HumidityAvg,HumidityLow,PressureMaxIn,PressureMinIn,WindSpeedMaxMPH,WindSpeedAvgMPH,GustSpeedMaxMPH,PrecipitationSumIn
2014-1-1,12.0,3.8,-4.1,-4.5,-8.5,-14.8,65,56,44,30.48,30.39,4,4,14,0.00
2014-1-2,17.3,5.9,-6.0,-0.9,-6.3,-14.9,67,57,42,30.51,30.39,4,4,14,0.00
2014-1-3,20.0,6.2,-10.3,11.1,-3.4,-18.0,76,64,53,30.47,29.70,4,4,14,0.06
2014-1-4,29.9,22.1,10.5,23.6,12.5,-1.0,78,66,57,30.24,29.64,4,4,14,0.00
2014-1-5,10.7,-0.6,-12.6,-0.8,-12.9,-23.3,68,55,45,30.36,30.23,4,4,14,0.00
2014-1-6,-7.5,-14.8,-21.4,-20.2,-26.0,-31.3,71,56,44,30.32,30.24,4,4,14,0.00
2014-1-7,7.9,-6.5,-17.3,-10.2,-17.3,-25.6,71,59,43,30.34,30.21,4,4,14,0.00
2014-1-8,10.3,-2.9,-9.8,-5.8,-13.2,-18.3,71,61,45,30.56,30.32,4,4,14,0.00
2014-1-9,20.2,4.9,-12.6,12.2,-4.8,-20.7,79,64,45,30.54,30.10,4,4,14,0.00
2014-1-10,31.1,26.1,17.9,26.3,21.4,12.2,83,82,78,30.10,29.55,4,4,14,0.00
2014-1-11,31.1,28.6,25.4,25.1,23.2,19.7,83,80,75,29.83,29.54,4,4,14,0.00
2014-1-12,41.9,33.2,23.3,28.8,24.8,18.3,82,72,57,29.82,29.53,4,4,14,0.10
2014-1-13,39.4,31.7,24.5,27.6,23.1,17.1,82,71,49,29.78,29.59,4,4,14,0.00
2014-1-14,31.3,23.7,11.2,26.0,17.1,2.0,83,75,65,30.11,29.53,4,4,14,0.00
2014-1-15,18.6,10.4,3.5,11.6,0.9,-4.7,76,65,49,30.20,29.64,4,4,14,0.00
2014-1-16,33.4,21.2,8.8,27.0,11.2,-2.6,79,65,48,29.87,29.49,4,4,14,0.00
2014-1-17,20.2,10.3,-0.3,4.9,0.0,-9.2,74,63,49,30.07,29.85,4,4,14,0.00
2014-1-18,26.4,12.3,1.8,13.4,3.6,-6.8,76,68,57,30.01,29.75,4,4,14,0.00
2014-1-19,40.7,26.5,10.0,26.3,17.8,2.8,79,70,51,29.88,29.54,4,4,14,0.11
2014-1-20,31.7,22.4,3.2,23.9,13.0,-10.2,75,67,50,30.40,29.76,4,4,14,0.00
2014-1-21,10.0,-0.1,-10.7,-7.8,-13.2,-20.5,62,53,41,30.49,30.13,4,4,14,0.00
2014-1-22,14.1,2.9,-5.8,0.1,-7.9,-17.0,72,60,47,30.42,29.99,4,4,14,0.00
2014-1-23,6.7,-5.6,-13.3,-10.3,-17.3,-22.6,69,56,42,30.72,30.42,4,4,14,0.00
2014-1-24,30.8,15.9,-12.2,25.7,6.3,-19.9,84,66,55,30.45,29.52,4,4,14,0.00
2014-1-25,30.1,12.2,2.4,22.9,-3.6,-11.5,74,49,35,29.93,29.53,4,4,14,0.00
2014-1-26,22.0,9.8,-0.8,11.4,0.1,-11.6,73,64,47,30.04,29.45,4,4,14,0.00
2014-1-27,0.1,-7.1,-13.3,-10.8,-20.0,-24.4,70,53,38,30.47,30.04,4,4,14,0.00
2014-1-28,5.3,-8.4,-20.0,-12.6,-19.9,-29.2,69,57,41,30.46,30.22,4,4,14,0.00
2014-1-29,27.7,8.4,-14.3,11.9,-5.3,-22.4,71,54,37,30.23,29.77,57,21,57,0.00
2014-1-30,31.1,23.8,5.4,24.2,12.8,-4.1,79,63,50,30.08,29.56,34,28,53,0.00
2014-1-31,14.8,2.8,-3.9,-3.6,-9.2,-13.0,68,57,41,30.26,30.07,28,28,28,0.00
2014-2-1,24.3,11.8,-1.1,11.0,1.2,-10.6,71,62,52,30.24,30.01,28,28,28,0.00
2014-2-2,19.2,4.4,-7.0,1.5,-7.8,-15.9,67,57,38,30.40,30.23,53,28,53,0.00
2014-2-3,26.1,6.8,-9.1,7.6,-4.1,-17.1,72,61,44,30.42,30.29,53,28,53,0.00
2014-2-4,22.3,13.9,6.2,5.5,2.0,-1.5,72,59,45,30.50,30.36,28,28,28,0.00
2014-2-5,13.5,7.2,-4.1,1.5,-3.7,-13.6,68,61,51,30.54,30.36,28,28,28,0.00
2014-2-6,10.1,-2.5,-12.2,-7.2,-13.6,-20.4,73,59,44,30.52,30.35,34,28,53,0.00
2014-2-7,17.9,1.9,-10.3,-2.4,-9.7,-18.2,73,59,39,30.36,30.28,28,28,28,0.00
2014-2-8,18.6,5.4,-6.0,6.6,-3.6,-14.0,73,66,56,30.30,30.17,53,28,53,0.00
2014-2-9,17.5,5.0,-7.2,1.2,-6.6,-17.4,71,59,40,30.43,30.21,53,28,53,0.00
2014-2-10,14.5,-1.8,-12.7,-5.3,-14.1,-21.4,70,56,37,30.56,30.42,53,28,53,0.00
2014-2-11,17.5,1.3,-13.5,-2.4,-11.6,-22.5,67,55,40,30.55,30.25,36,28,53,0.00
2014-2-12,30.6,15.1,6.2,12.5,3.3,-6.4,74,59,46,30.26,29.98,28,28,28,0.02
2014-2-13,30.8,17.8,7.5,22.9,10.0,-1.2,77,71,60,29.99,29.52,28,28,28,0.00
2014-2-14,23.9,10.3,1.6,5.3,-1.1,-6.8,73,60,43,30.12,29.77,37,28,53,0.00
2014-2-15,22.4,9.2,-2.2,11.6,-0.1,-10.5,77,66,46,30.13,29.93,37,27,37,0.00
2014-2-16,34.7,21.3,9.3,13.8,8.9,1.3,75,60,40,30.29,30.06,37,27,37,0.04
2014-2-17,26.8,22.6,17.5,19.9,15.8,8.9,80,75,68,30.22,29.77,37,27,37,0.00
2014-2-18,47.1,30.6,14.1,27.9,20.3,8.1,83,67,46,29.93,29.64,37,27,37,0.12
2014-2-19,50.9,32.9,19.4,29.5,22.5,13.5,78,67,40,29.97,29.80,37,27,37,0.00
2014-2-20,36.5,33.3,30.9,30.9,27.1,22.6,84,78,65,29.86,29.17,57,33,57,0.25
2014-2-21,30.8,17.8,11.7,25.9,8.9,4.3,82,68,55,29.86,29.24,27,27,27,0.00
2014-2-22,29.2,16.0,8.2,9.0,4.0,0.1,72,60,40,30.19,29.85,37,27,37,0.00
2014-2-23,26.1,12.1,0.6,6.1,0.1,-6.5,73,59,40,30.31,30.18,37,27,37,0.00
2014-2-24,26.4,12.3,1.8,4.5,-1.0,-6.0,70,56,37,30.37,30.29,37,27,37,0.00
2014-2-25,16.9,6.4,-3.3,2.3,-6.4,-13.2,74,56,37,30.36,30.27,37,27,37,0.00
2014-2-26,14.8,2.7,-11.4,6.8,-8.9,-19.9,73,58,44,30.36,29.70,37,27,37,0.00
2014-2-27,12.9,-0.3,-8.4,-10.2,-16.9,-21.9,61,45,29,30.25,29.85,37,27,37,0.00
2014-2-28,17.9,7.1,-9.8,10.1,-4.1,-19.5,74,60,44,30.20,29.99,30,27,37,0.00
2014-3-1,14.8,6.5,-0.8,6.8,-4.8,-15.3,70,59,49,30.52,30.16,37,27,37,0.00
2014-3-2,11.0,-1.0,-10.3,-14.5,-18.6,-23.1,59,43,28,30.60,30.51,37,27,37,0.00
2014-3-3,18.6,2.5,-14.5,0.8,-12.0,-22.9,69,51,35,30.60,30.34,27,27,37,0.00
2014-3-4,29.6,17.8,8.8,11.0,6.0,0.8,75,60,41,30.35,30.22,27,27,27,0.00
2014-3-5,35.1,20.6,9.3,12.0,7.1,-1.0,74,57,34,30.51,30.34,27,27,28,0.00
2014-3-6,37.5,20.2,3.9,17.6,8.5,-4.2,74,61,43,30.50,30.01,34,28,53,0.03
2014-3-7,42.6,31.9,22.3,28.8,22.5,13.7,76,68,56,30.16,29.90,28,28,28,0.04
2014-3-8,41.0,29.5,17.5,24.8,16.0,9.8,77,58,38,30.35,30.15,28,28,28,0.00
2014-3-9,47.1,30.2,13.5,29.8,19.4,6.7,77,65,47,30.29,29.78,28,28,28,0.00
2014-3-10,62.7,42.7,29.8,39.4,30.8,25.0,83,65,39,29.80,29.70,28,28,28,0.00
2014-3-11,41.3,36.4,32.7,34.6,29.4,22.3,82,76,63,29.96,29.77,28,28,28,0.17
2014-3-12,38.4,29.3,16.9,22.6,14.4,7.6,73,55,36,30.19,29.94,28,28,28,0.00
2014-3-13,48.8,31.6,12.9,33.8,20.6,5.5,81,64,48,30.17,29.70,28,28,28,0.00
2014-3-14,46.0,39.5,31.8,33.6,28.8,20.7,75,65,57,29.98,29.58,28,28,28,0.00
2014-3-15,40.0,30.4,21.6,20.8,16.8,8.4,78,58,39,30.41,29.98,28,28,28,0.00
2014-3-16,37.4,22.9,11.9,10.3,5.4,-0.8,66,48,30,30.52,30.19,28,28,28,0.00
2014-3-17,41.5,26.5,17.9,21.4,12.4,5.8,64,55,42,30.19,29.73,28,28,28,0.00
2014-3-18,50.9,37.1,25.6,32.9,25.1,17.9,76,62,49,29.83,29.72,28,28,28,0.00
2014-3-19,37.2,32.9,29.2,28.4,26.0,21.4,83,76,62,30.06,29.74,28,28,28,0.20
2014-3-20,50.9,34.1,21.3,28.9,22.8,16.7,82,66,39,30.12,30.04,28,28,28,0.00
2014-3-21,53.5,37.4,25.2,34.4,26.2,19.8,80,65,45,30.08,29.81,28,28,28,0.00
2014-3-22,34.5,25.5,16.2,25.5,11.5,3.0,72,56,37,30.52,30.08,28,28,28,0.00
2014-3-23,30.9,19.0,9.3,7.4,4.0,0.0,71,53,35,30.57,30.43,28,28,28,0.00
2014-3-24,34.5,23.7,12.9,23.2,13.9,6.4,77,66,48,30.45,30.14,28,28,28,0.00
2014-3-25,28.9,19.2,11.2,10.8,4.0,-3.0,74,52,34,30.32,30.13,28,28,28,0.00
2014-3-26,39.6,24.7,8.8,21.1,11.1,2.8,77,58,38,30.29,29.83,28,28,28,0.00
2014-3-27,42.4,37.8,34.7,33.7,30.8,20.4,84,77,46,29.83,29.49,33,19,33,0.57
2014-3-28,50.0,36.4,29.9,30.2,25.7,22.4,83,66,44,30.26,29.63,14,14,28,0.00
2014-3-29,40.2,31.2,28.5,26.3,23.5,21.1,76,73,58,30.34,30.25,14,14,28,0.00